Regional Weather Roundup
Issued by NWS State College, PA

Home | Current Version | Previous Version | Text Only | Print | Product List | Glossary On
Versions: 1 2 3 4 5 6 7 8 9 10 11 12 13 14 15 16 17 18 19 20 21 22 23 24 25 26 27 28 29 30 31 32 33 34 35 36 37 38 39 40 41 42 43 44 45 46 47 48 49 50
000
ASUS41 KCTP 191503
RWRCTP

REGIONAL WEATHER ROUNDUP
NATIONAL WEATHER SERVICE STATE COLLEGE PA
1000 AM EST SUN NOV 19 2017

Note: "fair" indicates few or no clouds below 12,000 feet with no
significant weather and/or obstructions to visibility.

* = STATION THAT DOES NOT REPORT PRECIPITATION /E.G. RAIN...SNOW...ETC/
    THUNDER OR FOG.

PAZ002>004-007>009-013>016-020>023-029>032-191600-
WESTERN PENNSYLVANIA

CITY           SKY/WX    TMP DP  RH WIND       PRES   REMARKS
ERIE           CLOUDY    39  27  62 NW12G26   29.72R
MEADVILLE      CLOUDY    35  29  78 W13G24    29.72R
FRANKLIN*      CLOUDY    35  29  78 W12G21      N/A
NEW CASTLE     CLOUDY    37  30  75 W10       29.78R
BEAVER COUNTY  CLOUDY   N/A N/A N/A MISG      29.77R
BUTLER*        CLOUDY    36  31  82 W8        29.77R
PITTSBURGH INT CLOUDY    37  32  82 W12       29.78R
PITTSBURGH     FLURRIES  36  30  79 W15G28    29.78R
INDIANA*       CLOUDY    36  34  93 NW7G16    29.76R
LATROBE        CLOUDY    37  32  81 W15G26    29.79R
WASHINGTON CO* CLOUDY    37  28  70 W10       29.84R
$$

PAZ004>006-010>012-017>019-024>028-033>037-041-042-045-046-049>053-191600-
CENTRAL PENNSYLVANIA

CITY           SKY/WX    TMP DP  RH WIND       PRES   REMARKS
BRADFORD       CLOUDY    34  30  85 NW21G28   29.61R
DUBOIS         CLOUDY    35  31  85 W12G22    29.66R
CLEARFIELD     LGT RAIN  38  34  85 W15G28    29.65R
JOHNSTOWN      CLOUDY    33  29  85 W29G38    29.67R
ALTOONA        CLOUDY    41  33  73 W15       29.68R
STATE COLLEGE  LGT RAIN  37  34  87 NW12G23   29.64R
WILLIAMSPORT   CLOUDY    46  32  58 W16G30    29.57R
SELINSGROVE    MOSUNNY   46  33  60 W15G28    29.59R
FT INDIANTOWN  PTSUNNY   47  34  60 NW12G28   29.57R
CAPITAL CITY   PTSUNNY   49  32  52 W18G31    29.60R
HARRISBURG     PTSUNNY   47  35  63 NW21G35   29.60R
YORK           CLOUDY    48  33  56 W15G35    29.62R
$$

PAZ038>040-043-044-047-048-054-055-060>062-067>071-191600-
EASTERN PENNSYLVANIA

CITY           SKY/WX    TMP DP  RH WIND       PRES   REMARKS
SCRANTON       CLOUDY    43  30  60 NW22G31   29.50R
MOUNT POCONO   NOT AVBL
ALLENTOWN      CLOUDY    48  32  53 W23G31    29.50R
QUAKERTOWN*    CLOUDY    46  32  57 NW13G31   29.53R
READING        PTSUNNY   48  34  58 NW26G33   29.55R
LANCASTER      PTSUNNY   49  36  61 NW21G35   29.57R
COATESVILLE    PTSUNNY   48  36  61 W29       29.57R
POTTSTOWN      LGT RAIN  48  33  56 NW23G37   29.55R
BLUE BELL      CLOUDY    46  34  61 NW15G24   29.55R
DOYLESTOWN     PTSUNNY   48  33  56 NW22G43   29.50R
WILLOW GROVE   NOT AVBL
NORTH PHILA    MOSUNNY   52  34  50 NW26G41   29.53R
PHILADELPHIA   PTSUNNY   51  32  48 NW31G43   29.55R
$$




USA.gov is the U.S. government's official web portal to all federal, state and local government web resources and services.